GW1361 Weather Reports


time (UTC)temp
F
wind
direction
speed
knots
gust
knots
rain 1hr
in
rain 24hr
in
rain mn
in
humidity
%
barometer
mb
20240222112717 32 11 0.0 0.0 0.00 0.00 0.00 81 1018.9
20240222112216 32 18 0.0 0.0 0.00 0.00 0.00 81 1018.8
20240222111642 32 26 0.0 0.0 0.00 0.00 0.00 81 1018.9
20240222111139 32 5 0.0 0.0 0.00 0.00 0.00 80 1018.5
20240222110638 32 344 0.9 0.9 0.00 0.00 0.00 80 1018.9
20240222110136 31 6 0.0 0.0 0.00 0.00 0.00 82 1018.8
20240222105634 31 1 0.0 0.9 0.00 0.00 0.00 83 1018.6
20240222105133 31 15 0.0 0.0 0.00 0.00 0.00 84 1018.6
20240222104631 30 19 0.0 0.0 0.00 0.00 0.00 85 1018.6
20240222104131 30 11 0.0 0.0 0.00 0.00 0.00 85 1018.8
20240222103630 30 11 0.0 0.0 0.00 0.00 0.00 85 1018.6
20240222103130 30 10 0.0 0.0 0.00 0.00 0.00 85 1018.5
20240222102629 30 9 0.0 0.0 0.00 0.00 0.00 85 1018.4
20240222102128 30 9 0.0 0.0 0.00 0.00 0.00 85 1018.4
20240222101627 30 5 0.0 0.0 0.00 0.00 0.00 85 1018.3
20240222101127 30 4 0.0 0.0 0.00 0.00 0.00 84 1018.2
20240222100625 30 4 0.0 0.0 0.00 0.00 0.00 84 1018.2
20240222100124 30 25 0.0 0.0 0.00 0.00 0.00 84 1018.0
20240222095624 30 10 0.0 0.0 0.00 0.00 0.00 83 1018.2
20240222095123 30 6 0.0 0.0 0.00 0.00 0.00 84 1018.3
20240222094622 30 4 0.0 0.0 0.00 0.00 0.00 83 1018.2
20240222094122 30 20 0.0 0.0 0.00 0.00 0.00 83 1018.0
20240222093622 30 20 0.0 0.0 0.00 0.00 0.00 82 1017.9
20240222093122 30 9 0.0 0.0 0.00 0.00 0.00 82 1017.7
20240222092621 31 9 0.0 0.0 0.00 0.00 0.00 81 1017.6
20240222092120 31 4 0.0 0.9 0.00 0.00 0.00 82 1017.6
20240222091619 30 8 0.0 0.0 0.00 0.00 0.00 81 1017.2
20240222091119 31 22 0.0 0.0 0.00 0.00 0.00 81 1017.1
20240222090618 31 23 0.0 0.0 0.00 0.00 0.00 81 1017.5
20240222090118 31 19 0.0 0.0 0.00 0.00 0.00 82 1017.5
20240222085617 31 19 0.0 0.0 0.00 0.00 0.00 81 1017.5
20240222085115 31 5 0.0 0.0 0.00 0.00 0.00 82 1017.5
20240222084614 31 15 0.0 0.9 0.00 0.00 0.00 83 1017.3
20240222084112 31 10 0.0 0.0 0.00 0.00 0.00 85 1017.3
20240222083610 31 42 0.9 0.9 0.00 0.00 0.00 84 1017.2
20240222083108 31 9 0.0 0.0 0.00 0.00 0.00 84 1017.3
20240222082607 31 353 0.9 0.9 0.00 0.00 0.00 85 1017.3
20240222082052 31 7 0.0 0.0 0.00 0.00 0.00 85 1017.2
20240222081551 31 9 0.0 0.0 0.00 0.00 0.00 85 1017.2
20240222080511 31 10 0.0 0.0 0.00 0.00 0.00 85 1017.1
20240222080009 31 10 0.0 0.0 0.00 0.00 0.00 84 1017.2
20240222075509 31 9 0.0 0.0 0.00 0.00 0.00 85 1017.1
20240222075008 32 11 0.0 0.0 0.00 0.00 0.00 83 1017.2
20240222074507 32 11 0.0 0.0 0.00 0.00 0.00 83 1017.3
20240222074005 33 10 0.0 0.0 0.00 0.00 0.00 81 1017.3
20240222073505 33 9 0.0 0.0 0.00 0.00 0.00 81 1017.2
20240222073004 33 9 0.0 0.0 0.00 0.00 0.00 81 1017.5
20240222072502 34 11 0.0 0.0 0.00 0.00 0.00 81 1017.5
20240222072000 34 11 0.0 0.0 0.00 0.00 0.00 80 1017.6
20240222071457 34 11 0.0 0.0 0.00 0.00 0.00 80 1017.6
20240222070957 34 10 0.0 0.0 0.00 0.00 0.00 80 1017.5
20240222070454 34 359 0.0 0.9 0.00 0.00 0.00 80 1017.5
20240222065952 34 8 0.0 0.0 0.00 0.00 0.00 79 1017.6
20240222065451 34 7 0.0 0.0 0.00 0.00 0.00 80 1017.5
20240222064951 34 9 0.0 0.0 0.00 0.00 0.00 80 1017.2
20240222064450 34 10 0.0 0.0 0.00 0.00 0.00 79 1017.6
20240222063949 35 9 0.0 0.0 0.00 0.00 0.00 78 1017.2
20240222063448 35 10 0.0 0.0 0.00 0.00 0.00 78 1017.2
20240222062947 35 5 0.0 0.9 0.00 0.00 0.00 77 1017.1
20240222062445 35 5 0.0 0.9 0.00 0.00 0.00 76 1017.2
20240222061944 36 7 0.0 0.0 0.00 0.00 0.00 75 1017.3
20240222061443 37 12 0.0 0.0 0.00 0.00 0.00 74 1017.2
20240222060941 37 30 0.0 0.9 0.00 0.00 0.00 72 1017.2
20240222060440 37 25 0.0 0.0 0.00 0.00 0.00 71 1017.2
20240222055939 36 26 0.0 0.0 0.00 0.00 0.00 70 1017.2
20240222055437 36 23 0.0 0.0 0.00 0.00 0.00 69 1017.3
20240222054935 37 36 0.9 0.9 0.00 0.00 0.00 69 1017.2
20240222054434 37 15 0.0 0.0 0.00 0.00 0.00 68 1017.1
20240222053932 37 15 0.0 0.0 0.00 0.00 0.00 68 1017.2
20240222053432 37 16 0.0 0.0 0.00 0.00 0.00 67 1017.1
20240222052932 39 5 0.0 0.0 0.00 0.00 0.00 65 1017.2
20240222052431 40 23 0.0 0.0 0.00 0.00 0.00 64 1017.2
20240222051929 40 84 1.7 1.7 0.00 0.00 0.00 64 1017.1
20240222051428 39 20 0.0 0.0 0.00 0.00 0.00 62 1016.9
20240222050927 39 27 0.0 0.9 0.00 0.00 0.00 60 1016.9
20240222050425 38 30 0.9 0.9 0.00 0.00 0.00 61 1016.8
20240222045925 37 25 0.0 0.9 0.00 0.00 0.00 62 1016.6
20240222045422 37 10 0.0 0.0 0.00 0.00 0.00 60 1016.5
20240222044922 37 357 0.9 0.9 0.00 0.00 0.00 59 1016.2
20240222044420 38 20 0.0 0.0 0.00 0.00 0.00 58 1016.0
20240222043919 38 0 0.0 0.9 0.00 0.00 0.00 56 1016.0
20240222043418 38 30 0.9 0.9 0.00 0.00 0.00 55 1015.9
20240222042917 39 18 0.0 0.0 0.00 0.00 0.00 55 1016.0
20240222042417 39 11 0.0 0.0 0.00 0.00 0.00 53 1016.0
20240222041916 39 12 0.0 0.0 0.00 0.00 0.00 54 1015.8
20240222041415 39 14 0.0 0.0 0.00 0.00 0.00 55 1015.8
20240222040915 39 15 0.0 0.0 0.00 0.00 0.00 55 1015.7
20240222040414 40 14 0.0 0.0 0.00 0.00 0.00 54 1015.6
20240222035913 40 8 0.0 0.0 0.00 0.00 0.00 55 1015.6
20240222035413 40 7 0.0 0.0 0.00 0.00 0.00 55 1015.6
20240222034912 41 10 0.0 0.0 0.00 0.00 0.00 57 1015.3
20240222034412 41 6 0.0 0.0 0.00 0.00 0.00 56 1015.5
20240222033910 42 23 0.0 0.0 0.00 0.00 0.00 54 1015.3
20240222033410 43 33 0.9 0.9 0.00 0.00 0.00 53 1015.2
20240222032909 43 22 0.0 0.0 0.00 0.00 0.00 52 1015.2
20240222032409 43 39 0.9 0.9 0.00 0.00 0.00 51 1015.0
20240222031908 43 350 0.9 0.9 0.00 0.00 0.00 51 1015.1
20240222031408 44 342 0.9 0.9 0.00 0.00 0.00 49 1015.0
20240222030907 44 10 0.0 0.0 0.00 0.00 0.00 48 1014.6
20240222030405 44 14 0.0 0.0 0.00 0.00 0.00 46 1014.7
20240222025905 45 15 0.9 0.9 0.00 0.00 0.00 44 1014.5
20240222025405 45 303 0.9 0.9 0.00 0.00 0.00 41 1014.3
20240222024904 45 8 0.0 0.0 0.00 0.00 0.00 38 1014.5
20240222024404 46 28 0.0 0.9 0.00 0.00 0.00 36 1014.0
20240222023903 47 355 0.0 0.9 0.00 0.00 0.00 31 1014.0
20240222023403 48 14 0.9 0.9 0.00 0.00 0.00 30 1013.8
20240222022902 47 18 0.9 0.9 0.00 0.00 0.00 31 1013.8
20240222022402 48 17 0.0 0.0 0.00 0.00 0.00 30 1013.8
20240222021900 48 10 0.9 1.7 0.00 0.00 0.00 29 1013.7
20240222021359 49 6 0.9 0.9 0.00 0.00 0.00 29 1013.7
20240222020858 49 64 0.0 0.9 0.00 0.00 0.00 29 1013.6
20240222020357 49 9 0.9 0.9 0.00 0.00 0.00 29 1013.6
20240222015855 49 8 1.7 1.7 0.00 0.00 0.00 29 1013.3
20240222015354 49 288 4.3 6.1 0.00 0.00 0.00 28 1013.2
20240222014852 50 6 0.9 1.7 0.00 0.00 0.00 28 1013.2
20240222014352 49 293 2.6 4.3 0.00 0.00 0.00 28 1013.0
20240222013851 50 331 2.6 2.6 0.00 0.00 0.00 28 1012.9
20240222013350 50 32 1.7 1.7 0.00 0.00 0.00 28 1013.1
20240222012849 50 321 2.6 2.6 0.00 0.00 0.00 27 1012.9
20240222012349 50 323 1.7 1.7 0.00 0.00 0.00 27 1013.1
20240222011848 50 15 1.7 1.7 0.00 0.00 0.00 26 1012.7
20240222011346 51 334 1.7 2.6 0.00 0.00 0.00 25 1012.9
20240222010845 51 277 2.6 2.6 0.00 0.00 0.00 25 1012.7
20240222010345 51 331 2.6 2.6 0.00 0.00 0.00 24 1012.7
20240222005844 51 358 1.7 1.7 0.00 0.00 0.00 24 1012.9
20240222005344 52 330 0.9 1.7 0.00 0.00 0.00 24 1012.5
20240222004843 52 3 0.9 0.9 0.00 0.00 0.00 22 1012.5
20240222004343 53 8 0.9 1.7 0.00 0.00 0.00 22 1012.3
20240222003842 53 11 0.9 0.9 0.00 0.00 0.00 21 1012.3
20240222003342 53 3 0.9 1.7 0.00 0.00 0.00 20 1012.0
20240222002842 54 4 0.9 0.9 0.00 0.00 0.00 20 1011.8
20240222002341 55 339 1.7 2.6 0.00 0.00 0.00 19 1011.6
20240222001839 55 346 1.7 2.6 0.00 0.00 0.00 18 1011.7
20240222001339 56 7 1.7 1.7 0.00 0.00 0.00 17 1011.6
20240222000838 56 340 1.7 1.7 0.00 0.00 0.00 16 1011.4
20240222000338 57 255 4.3 6.1 0.00 0.00 0.00 15 1011.6
20240221235837 59 6 0.9 0.9 0.00 0.00 0.00 15 1011.4
20240221235335 59 213 2.6 2.6 0.00 0.00 0.00 15 1011.2
20240221234834 59 239 4.3 6.1 0.00 0.00 0.00 15 1011.2
20240221234332 60 29 1.7 2.6 0.00 0.00 0.00 13 1011.0
20240221233832 62 9 0.0 0.9 0.00 0.00 0.00 13 1011.0
20240221233331 62 268 1.7 2.6 0.00 0.00 0.00 13 1011.0
20240221232828 63 334 0.9 0.9 0.00 0.00 0.00 13 1010.8
20240221232328 62 350 0.0 0.9 0.00 0.00 0.00 13 1010.8
20240221231826 60 0 0.9 0.9 0.00 0.00 0.00 14 1010.6
20240221231324 59 13 0.9 0.9 0.00 0.00 0.00 14 1010.6
20240221230740 59 323 0.9 1.7 0.00 0.00 0.00 16 1010.5
20240221230236 60 18 0.9 0.9 0.00 0.00 0.00 14 1010.4
20240221225734 61 263 3.5 5.2 0.00 0.00 0.00 13 1010.4
20240221225233 59 353 0.9 0.9 0.00 0.00 0.00 13 1010.3
20240221224731 59 336 4.3 6.1 0.00 0.00 0.00 14 1010.4
20240221224231 60 357 0.9 1.7 0.00 0.00 0.00 14 1010.3
20240221223731 61 238 2.6 5.2 0.00 0.00 0.00 14 1010.1
20240221223230 62 133 2.6 4.3 0.00 0.00 0.00 12 1010.0
20240221222729 61 216 2.6 2.6 0.00 0.00 0.00 14 1010.3
20240221222228 60 259 4.3 9.6 0.00 0.00 0.00 14 1010.1
20240221221726 59 321 3.5 4.3 0.00 0.00 0.00 15 1010.3
20240221221224 59 273 4.3 5.2 0.00 0.00 0.00 14 1010.1
20240221220724 59 250 2.6 4.3 0.00 0.00 0.00 14 1010.1
20240221220222 60 211 6.1 8.7 0.00 0.00 0.00 14 1010.0
20240221215720 61 196 4.3 5.2 0.00 0.00 0.00 13 1010.0
20240221215218 62 285 2.6 2.6 0.00 0.00 0.00 14 1009.9
20240221214717 62 267 7.0 8.7 0.00 0.00 0.00 13 1009.9
20240221214215 62 239 3.5 4.3 0.00 0.00 0.00 13 1009.7
20240221213713 62 255 6.1 7.0 0.00 0.00 0.00 13 1009.5
20240221213212 62 257 7.0 13.9 0.00 0.00 0.00 14 1009.5
20240221212711 61 270 6.1 8.7 0.00 0.00 0.00 14 1009.5
20240221212211 62 226 6.1 8.7 0.00 0.00 0.00 15 1009.3
20240221211710 62 190 3.5 5.2 0.00 0.00 0.00 15 1009.4
20240221211209 64 234 6.1 9.6 0.00 0.00 0.00 14 1009.2
20240221210708 64 217 9.6 11.3 0.00 0.00 0.00 13 1009.2
20240221210208 66 228 5.2 7.0 0.00 0.00 0.00 15 1009.2
20240221205707 65 316 3.5 4.3 0.00 0.00 0.00 14 1009.2
20240221205207 65 249 5.2 8.7 0.00 0.00 0.00 14 1009.2
20240221204706 65 243 5.2 7.0 0.00 0.00 0.00 14 1009.2
20240221204204 66 339 4.3 6.1 0.00 0.00 0.00 13 1009.1
20240221203704 66 244 4.3 5.2 0.00 0.00 0.00 13 1009.1
20240221203202 66 129 3.5 5.2 0.00 0.00 0.00 14 1009.2
20240221202701 66 223 5.2 7.0 0.00 0.00 0.00 14 1009.2
20240221202159 65 224 2.6 4.3 0.00 0.00 0.00 15 1009.3
20240221201659 66 202 3.5 5.2 0.00 0.00 0.00 14 1009.2
20240221201158 65 189 2.6 2.6 0.00 0.00 0.00 14 1009.3
20240221200658 65 178 2.6 4.3 0.00 0.00 0.00 14 1009.5
20240221200157 65 326 3.5 4.3 0.00 0.00 0.00 14 1009.5
20240221195657 65 209 3.5 5.2 0.00 0.00 0.00 14 1009.8
20240221195156 64 322 1.7 2.6 0.00 0.00 0.00 14 1009.7
20240221194655 65 129 6.1 9.6 0.00 0.00 0.00 13 1010.0
20240221194154 65 271 2.6 5.2 0.00 0.00 0.00 14 1009.9
20240221193654 65 311 1.7 4.3 0.00 0.00 0.00 15 1010.0
20240221193153 65 30 1.7 1.7 0.00 0.00 0.00 15 1010.1
20240221192652 65 301 1.7 2.6 0.00 0.00 0.00 14 1010.3
20240221192150 65 49 2.6 5.2 0.00 0.00 0.00 14 1010.5
20240221191648 64 36 1.7 2.6 0.00 0.00 0.00 13 1010.6
20240221191147 65 286 2.6 2.6 0.00 0.00 0.00 15 1010.7
20240221190647 65 201 4.3 5.2 0.00 0.00 0.00 13 1010.5
20240221190145 64 238 3.5 5.2 0.00 0.00 0.00 14 1010.8
20240221185644 65 286 2.6 2.6 0.00 0.00 0.00 14 1010.8
20240221185143 64 104 2.6 4.3 0.00 0.00 0.00 14 1011.0
20240221184639 64 206 6.1 9.6 0.00 0.00 0.00 14 1011.0
20240221184138 65 235 3.5 5.2 0.00 0.00 0.00 14 1011.3
20240221183637 64 198 4.3 7.0 0.00 0.00 0.00 15 1011.6
20240221183135 64 324 2.6 4.3 0.00 0.00 0.00 14 1011.4
20240221182635 64 218 3.5 5.2 0.00 0.00 0.00 15 1011.7
20240221182135 64 13 0.9 0.9 0.00 0.00 0.00 15 1011.9
20240221181632 64 348 1.7 1.7 0.00 0.00 0.00 16 1011.9
20240221181132 63 211 4.3 6.1 0.00 0.00 0.00 14 1012.1
20240221180631 63 217 2.6 4.3 0.00 0.00 0.00 15 1012.0
20240221180128 63 293 4.3 5.2 0.00 0.00 0.00 14 1012.4
20240221175627 63 238 4.3 6.1 0.00 0.00 0.00 15 1012.5
20240221175127 62 320 4.3 6.1 0.00 0.00 0.00 15 1012.5
20240221174624 62 260 9.6 12.2 0.00 0.00 0.00 13 1012.7
20240221174124 62 252 4.3 6.1 0.00 0.00 0.00 15 1012.7
20240221173623 62 308 1.7 2.6 0.00 0.00 0.00 15 1012.9
20240221173118 61 296 1.7 1.7 0.00 0.00 0.00 14 1013.0
20240221172616 61 250 4.3 7.0 0.00 0.00 0.00 15 1013.1
20240221172101 62 194 4.3 5.2 0.00 0.00 0.00 15 1013.2
20240221171559 62 331 2.6 4.3 0.00 0.00 0.00 15 1013.3
20240221171058 62 260 0.9 1.7 0.00 0.00 0.00 15 1013.3
20240221170557 61 217 3.5 4.3 0.00 0.00 0.00 14 1013.4
20240221170055 60 282 3.5 4.3 0.00 0.00 0.00 15 1013.7
20240221165553 61 276 6.1 7.0 0.00 0.00 0.00 14 1013.8
20240221165053 60 242 2.6 2.6 0.00 0.00 0.00 15 1013.7
20240221164552 60 295 2.6 4.3 0.00 0.00 0.00 15 1013.8
20240221164051 59 57 0.9 0.9 0.00 0.00 0.00 21 1014.0
20240221163551 59 15 0.0 0.9 0.00 0.00 0.00 21 1013.8
20240221163050 58 225 2.6 4.3 0.00 0.00 0.00 22 1014.0
20240221162549 57 52 1.7 1.7 0.00 0.00 0.00 24 1014.2
20240221162049 56 157 0.9 1.7 0.00 0.00 0.00 27 1014.0
20240221161547 56 153 3.5 5.2 0.00 0.00 0.00 27 1014.4
20240221161045 54 184 1.7 2.6 0.00 0.00 0.00 30 1014.3
20240221160544 53 38 0.9 0.9 0.00 0.00 0.00 32 1014.4
20240221160043 53 56 0.9 1.7 0.00 0.00 0.00 34 1014.4
20240221155542 52 155 2.6 2.6 0.00 0.00 0.00 33 1014.4
20240221155040 52 58 1.7 1.7 0.00 0.00 0.00 33 1014.7
20240221154540 52 135 2.6 2.6 0.00 0.00 0.00 33 1014.9
20240221154040 52 47 0.9 1.7 0.00 0.00 0.00 32 1014.6
20240221153538 51 27 0.0 0.0 0.00 0.00 0.00 35 1014.9
20240221153037 51 23 0.0 0.0 0.00 0.00 0.00 34 1015.0
20240221152535 50 35 0.9 0.9 0.00 0.00 0.00 38 1015.0
20240221152033 49 14 0.0 0.9 0.00 0.00 0.00 37 1015.2
20240221151529 47 30 0.0 0.0 0.00 0.00 0.00 43 1015.3
20240221151030 47 25 0.0 0.0 0.00 0.00 0.00 49 1015.1
20240221150453 46 26 0.0 0.0 0.00 0.00 0.00 51 1015.2
20240221145953 43 20 0.0 0.0 0.00 0.00 0.00 52 1015.1
20240221145452 41 13 0.0 0.0 0.00 0.00 0.00 55 1015.1
20240221144951 40 16 0.0 0.0 0.00 0.00 0.00 58 1015.1
20240221144449 39 15 0.0 0.0 0.00 0.00 0.00 60 1015.0
20240221143948 37 12 0.0 0.0 0.00 0.00 0.00 63 1015.1
20240221143448 36 12 0.0 0.0 0.00 0.00 0.00 66 1015.1
20240221142947 34 8 0.0 0.9 0.00 0.00 0.00 70 1015.0
20240221142447 32 6 0.9 0.9 0.00 0.00 0.00 73 1015.0
20240221141945 30 7 0.9 0.9 0.00 0.00 0.00 76 1015.0
20240221141444 30 4 0.0 0.9 0.00 0.00 0.00 76 1015.1
20240221140943 30 28 0.9 0.9 0.00 0.00 0.00 76 1015.2
20240221140442 30 12 0.0 0.0 0.00 0.00 0.00 77 1015.1
20240221135940 30 21 0.0 0.0 0.00 0.00 0.00 77 1015.1
20240221135439 30 357 0.0 0.9 0.00 0.00 0.00 76 1015.2
20240221134938 30 8 0.0 0.0 0.00 0.00 0.00 75 1015.3
20240221134437 30 0 0.0 0.0 0.00 0.00 0.00 76 1015.3
20240221133935 30 7 0.0 0.0 0.00 0.00 0.00 77 1015.5
20240221133434 30 9 0.0 0.0 0.00 0.00 0.00 77 1015.2
20240221132934 30 9 0.0 0.0 0.00 0.00 0.00 79 1015.3
20240221132434 29 340 0.9 0.9 0.00 0.00 0.00 80 1015.3
20240221131934 29 352 0.9 0.9 0.00 0.00 0.00 81 1015.2
20240221131433 30 305 0.9 1.7 0.00 0.00 0.00 79 1015.6
20240221130932 30 7 0.0 0.9 0.00 0.00 0.00 79 1015.6
20240221130431 31 7 0.0 0.0 0.00 0.00 0.00 78 1015.7
20240221125929 31 15 0.0 0.0 0.00 0.00 0.00 78 1015.7
20240221125427 30 3 0.0 0.0 0.00 0.00 0.00 79 1015.6
20240221124925 30 18 0.0 0.0 0.00 0.00 0.00 80 1015.6
20240221124423 30 11 0.0 0.0 0.00 0.00 0.00 79 1015.9
20240221123922 30 8 0.0 0.0 0.00 0.00 0.00 80 1015.8
20240221123420 30 10 0.0 0.0 0.00 0.00 0.00 80 1015.8
20240221122920 30 23 0.0 0.0 0.00 0.00 0.00 79 1015.9
20240221122419 31 23 0.0 0.0 0.00 0.00 0.00 78 1015.9
20240221121918 31 27 0.0 0.9 0.00 0.00 0.00 77 1016.0
20240221121418 31 8 0.0 0.0 0.00 0.00 0.00 77 1015.9
20240221120917 31 43 0.9 0.9 0.00 0.00 0.00 77 1015.9
20240221120417 31 17 0.0 0.0 0.00 0.00 0.00 77 1016.2
20240221115916 31 11 0.0 0.0 0.00 0.00 0.00 77 1016.0
20240221115415 31 12 0.0 0.0 0.00 0.00 0.00 77 1016.2
20240221114915 32 13 0.0 0.0 0.00 0.00 0.00 77 1015.8
20240221114414 32 15 0.0 0.0 0.00 0.00 0.00 76 1016.3
20240221113913 32 358 0.9 0.9 0.00 0.00 0.00 77 1015.8
20240221113412 32 14 0.0 0.0 0.00 0.00 0.00 76 1016.3
20240221112911 32 10 0.0 0.0 0.00 0.00 0.00 77 1016.4